カタログに戻る

ARABSAT 1A

運用中通信GEO
NORAD 15560·PAYLOAD·🇦🇪 UAE🇸🇦 Saudi Arabia

打ち上げ Feb 8, 1985 から Guiana Space Centre

Loading…

TLE

最新Source: Space-Track

元期: Sep 13, 2026, 20:50 UTC

1 15560U 85015A   26256.86858917  .00000119  00000-0  00000+0 0  9999
2 15560  11.7375 330.6732 0035424 239.5136 126.5185  1.00185195126900

AllMySatでARABSAT 1Aをリアルタイム追跡

Download on the App Store